#datint,netname,site,siteID,timestamp,airt_abovecanopy_avg,airt_f,airt_belowcanopy_avg,dpt_f,rh,soil_vwc,soil_f,Solar_rad,winds_mph,windd_deg,winds_mph_max,leafwetns,tot_10rain_mm,tot_60rain_mm,tot_dayrain_mm,leaft_1,budt_1
10min,FGNet,alpine,42.04,04JUN2021:00:00:00,68.5,63.8,63.0,46.7,46,29.49,67.298,0,2.4,101.9,3.9,0,0.00,0.00,0.00,63.572,65.3
10min,FGNet,alpine,42.04,04JUN2021:00:10:00,69.2,65.5,65.2,45.7,43,29.49,67.226,0,3.7,81,5.1,0,0.00,0.00,0.00,62.42,63.95
10min,FGNet,alpine,42.04,04JUN2021:00:20:00,68.3,63.2,62.7,46.4,45,29.47,67.118,0,1.8,195.2,4.6,0,0.00,0.00,0.00,60.674,62.456
10min,FGNet,alpine,42.04,04JUN2021:00:30:00,67.3,63.3,62.9,46.4,47,29.46,67.01,0,2.2,105.8,4.3,0,0.00,0.00,0.00,63.014,64.508
10min,FGNet,alpine,42.04,04JUN2021:00:40:00,67.4,63.4,62.5,46.3,47,29.45,66.974,0,1.0,101.1,2.5,0,0.00,0.00,0.00,60.062,61.736
10min,FGNet,alpine,42.04,04JUN2021:00:50:00,66.3,61.2,61.0,47.1,50,29.46,66.848,0,1.3,208,2.4,0,0.00,0.00,0.00,60.602,62.618
10min,FGNet,alpine,42.04,04JUN2021:01:00:00,66.3,62.6,62.2,46.5,49,29.46,66.74,0,2.7,80.4,4.1,0,0.00,0.00,0.00,60.368,62.51
10min,FGNet,alpine,42.04,04JUN2021:01:10:00,66.0,62.1,61.6,46.4,49,29.43,66.722,0,2.4,73.66,4.2,0,0.00,0.00,0.00,59,60.206
10min,FGNet,alpine,42.04,04JUN2021:01:20:00,65.2,60.8,60.2,46.5,51,29.43,66.668,0,1.4,194.1,2.8,0,0.00,0.00,0.00,57.686,59.702
10min,FGNet,alpine,42.04,04JUN2021:01:30:00,64.7,59.7,59.4,46.5,52,29.43,66.56,0,0.8,195.8,1.7,0,0.00,0.00,0.00,57.308,59.504
10min,FGNet,alpine,42.04,04JUN2021:01:40:00,64.4,59.8,59.2,46.4,52,29.42,66.578,0,0.8,141.9,2.2,0,0.00,0.00,0.00,57.272,59.666
10min,FGNet,alpine,42.04,04JUN2021:01:50:00,63.9,59.0,58.1,46.1,52,29.41,66.452,0,1.1,97.9,2.6,0,0.00,0.00,0.00,56.264,58.838
10min,FGNet,alpine,42.04,04JUN2021:02:00:00,63.5,58.3,57.9,46.4,54,29.4,66.452,0,0.6,89,1.4,0,0.00,0.00,0.00,57.506,59.558
10min,FGNet,alpine,42.04,04JUN2021:02:10:00,63.2,58.9,58.4,45.5,52,29.38,66.326,0,1.4,56.25,2.2,0,0.00,0.00,0.00,56.462,58.298
10min,FGNet,alpine,42.04,04JUN2021:02:20:00,63.1,58.2,57.9,45.0,52,29.37,66.326,0,1.3,70.01,2.3,0,0.00,0.00,0.00,56.606,59.036
10min,FGNet,alpine,42.04,04JUN2021:02:30:00,62.6,58.5,57.7,45.2,53,29.37,66.308,0,1.8,90.6,2.9,0,0.00,0.00,0.00,55.688,57.38
10min,FGNet,alpine,42.04,04JUN2021:02:40:00,62.1,58.0,57.4,45.2,54,29.36,66.218,0,0.6,76.36,1.5,0,0.00,0.00,0.00,56.156,57.956
10min,FGNet,alpine,42.04,04JUN2021:02:50:00,61.8,57.6,57.0,45.1,54,29.36,66.164,0,1.2,90.7,2.6,0,0.00,0.00,0.00,56.156,58.298
10min,FGNet,alpine,42.04,04JUN2021:03:00:00,62.0,57.8,57.0,44.6,53,29.37,66.182,0,0.9,58.61,2.8,0,0.00,0.00,0.00,57.632,59.45
10min,FGNet,alpine,42.04,04JUN2021:03:10:00,61.7,57.3,56.7,44.8,54,29.36,66.182,0,1.2,88.5,2.8,0,0.00,0.00,0.00,54.356,55.688
10min,FGNet,alpine,42.04,04JUN2021:03:20:00,61.1,56.4,55.9,44.9,55,29.34,66.02,0,1.8,156.7,4.4,0,0.00,0.00,0.00,55.22,56.426
10min,FGNet,alpine,42.04,04JUN2021:03:30:00,61.0,56.5,55.9,44.8,55,29.33,66.02,0,0.8,211.6,2.2,0,0.00,0.00,0.00,55.508,58.514
10min,FGNet,alpine,42.04,04JUN2021:03:40:00,61.3,56.7,56.8,44.8,55,29.32,66.002,0,1.2,173.6,3.6,0,0.00,0.00,0.00,54.41,55.742
10min,FGNet,alpine,42.04,04JUN2021:03:50:00,60.8,56.6,56.1,44.6,55,29.32,65.948,0,1.5,112.9,2.4,0,0.00,0.00,0.00,54.824,56.984
10min,FGNet,alpine,42.04,04JUN2021:04:00:00,60.5,56.8,55.7,44.4,55,29.31,65.948,0,1.0,35.3,2.4,0,0.00,0.00,0.00,55.904,57.308
10min,FGNet,alpine,42.04,04JUN2021:04:10:00,60.6,56.5,55.5,44.4,55,29.31,65.894,0,1.0,78.2,2.8,0,0.00,0.00,0.00,53.168,54.122
10min,FGNet,alpine,42.04,04JUN2021:04:20:00,60.0,55.5,54.9,45.0,58,29.3,65.696,0,1.1,88.9,2.7,0,0.00,0.00,0.00,55.166,56.786
10min,FGNet,alpine,42.04,04JUN2021:04:30:00,60.7,56.5,55.6,44.4,55,29.3,65.714,0,1.8,83.5,2.8,0,0.00,0.00,0.00,54.5,56.408
10min,FGNet,alpine,42.04,04JUN2021:04:40:00,59.9,55.4,54.6,44.7,57,29.29,65.642,0,1.3,67.53,3.1,0,0.00,0.00,0.00,53.33,55.76
10min,FGNet,alpine,42.04,04JUN2021:04:50:00,59.5,56.3,55.3,44.5,58,29.28,65.66,0,1.8,89.4,3.5,0,0.00,0.00,0.00,52.52,54.374
10min,FGNet,alpine,42.04,04JUN2021:05:00:00,59.1,54.7,54.3,44.9,59,29.29,65.516,0,1.0,144.8,2.7,0,0.00,0.00,0.00,54.788,56.282
10min,FGNet,alpine,42.04,04JUN2021:05:10:00,58.9,54.2,53.9,44.9,60,29.28,65.372,0,1.2,165.1,3.0,0,0.00,0.00,0.00,53.816,55.004
10min,FGNet,alpine,42.04,04JUN2021:05:20:00,58.9,55.0,54.7,44.6,59,29.29,65.336,0,2.8,75.83,5.2,0,0.00,0.00,0.00,54.698,56.354
10min,FGNet,alpine,42.04,04JUN2021:05:30:00,59.2,55.1,54.7,44.2,58,29.29,65.246,0,1.3,60.28,2.8,0,0.00,0.00,0.00,52.844,54.428
10min,FGNet,alpine,42.04,04JUN2021:05:40:00,58.7,54.3,53.8,44.2,59,29.28,65.156,0,1.0,145.6,2.7,0,0.00,0.00,0.00,52.304,53.834
10min,FGNet,alpine,42.04,04JUN2021:05:50:00,58.7,55.3,54.5,44.0,58,29.28,65.102,1,2.1,93,3.7,0,0.00,0.00,0.00,53.546,55.22
10min,FGNet,alpine,42.04,04JUN2021:06:00:00,58.3,54.4,53.9,44.4,60,29.27,65.066,3,0.7,61.91,3.2,0,0.00,0.00,0.00,51.836,53.816
10min,FGNet,alpine,42.04,04JUN2021:06:10:00,58.4,54.8,54.3,44.0,59,29.26,64.922,6,2.3,74.22,4.6,0,0.00,0.00,0.00,54.59,55.976
10min,FGNet,alpine,42.04,04JUN2021:06:20:00,58.6,54.4,54.0,44.5,59,29.26,64.886,9,0.6,46.48,4.4,0,0.00,0.00,0.00,52.286,53.942
10min,FGNet,alpine,42.04,04JUN2021:06:30:00,58.0,54.4,53.7,44.8,61,29.26,64.796,12,1.0,121.7,2.3,0,0.00,0.00,0.00,53.24,54.428
10min,FGNet,alpine,42.04,04JUN2021:06:40:00,58.1,54.0,53.8,44.3,60,29.26,64.778,14,1.2,59.24,1.6,0,0.00,0.00,0.00,52.448,53.816
10min,FGNet,alpine,42.04,04JUN2021:06:50:00,58.0,54.1,53.6,45.0,62,29.26,64.652,16,1.5,104.5,2.8,0,0.00,0.00,0.00,53.744,55.328
10min,FGNet,alpine,42.04,04JUN2021:07:00:00,58.5,55.2,55.1,45.2,61,29.25,64.544,17,2.6,102.8,5.3,0,0.00,0.00,0.00,53.852,54.536
10min,FGNet,alpine,42.04,04JUN2021:07:10:00,58.1,54.7,54.2,45.9,64,29.23,64.49,19,1.0,156.6,2.7,0,0.00,0.00,0.00,55.148,56.156
10min,FGNet,alpine,42.04,04JUN2021:07:20:00,58.2,54.8,54.2,46.2,64,29.23,64.328,21,1.0,98.3,3.3,0,0.00,0.00,0.00,54.122,54.842
10min,FGNet,alpine,42.04,04JUN2021:07:30:00,59.2,55.6,55.3,46.1,62,29.23,64.31,23,2.7,78.94,4.3,0,0.00,0.00,0.00,55.472,56.408
10min,FGNet,alpine,42.04,04JUN2021:07:40:00,59.7,56.3,55.9,46.4,61,29.23,64.166,25,2.1,96,3.4,0,0.00,0.00,0.00,54.878,55.508
10min,FGNet,alpine,42.04,04JUN2021:07:50:00,60.4,58.7,57.6,46.6,60,29.22,64.058,213,0.6,158.2,2.2,0,0.00,0.00,0.00,73.562,68.324
10min,FGNet,alpine,42.04,04JUN2021:08:00:00,62.0,61.6,60.2,48.3,61,29.2,64.04,292,1.8,139.6,3.2,0,0.00,0.00,0.00,79.25,72.104
10min,FGNet,alpine,42.04,04JUN2021:08:10:00,64.5,64.4,62.7,48.9,57,29.2,64.004,322,1.7,83.7,2.9,0,0.00,0.00,0.00,81.644,75.056
10min,FGNet,alpine,42.04,04JUN2021:08:20:00,66.8,68.7,65.7,50.0,55,29.19,63.914,354,2.0,91.7,3.2,0,0.00,0.00,0.00,91.256,82.166
10min,FGNet,alpine,42.04,04JUN2021:08:30:00,69.7,70.7,68.3,51.8,53,29.17,63.914,385,0.1,86.4,0.9,0,0.00,0.00,0.00,96.512,83.462
10min,FGNet,alpine,42.04,04JUN2021:08:40:00,72.1,71.6,70.8,49.6,45,29.15,63.932,417,0.1,86.7,0.7,0,0.00,0.00,0.00,96.944,86.486
10min,FGNet,alpine,42.04,04JUN2021:08:50:00,73.3,72.1,72.2,47.2,40,29.12,63.842,448,0.5,149.3,2.1,0,0.00,0.00,0.00,100.436,84.704
10min,FGNet,alpine,42.04,04JUN2021:09:00:00,74.6,72.8,73.2,48.7,40,29.11,63.77,478,0.2,151.6,1.6,0,0.00,0.00,0.00,101.552,84.38
10min,FGNet,alpine,42.04,04JUN2021:09:10:00,76.1,74.1,74.2,48.2,37,29.08,63.626,509,0.2,145.9,1.8,0,0.00,0.00,0.00,101.966,84.506
10min,FGNet,alpine,42.04,04JUN2021:09:20:00,75.7,74.8,75.0,48.3,38,29.06,63.482,541,0.9,281.2,2.6,0,0.00,0.00,0.00,103.568,85.658
10min,FGNet,alpine,42.04,04JUN2021:09:30:00,76.2,76.1,77.2,46.8,35,29.05,63.518,570,1.4,53.63,2.4,0,0.00,0.00,0.00,105.836,86.954
10min,FGNet,alpine,42.04,04JUN2021:09:40:00,77.3,77.1,78.1,46.0,33,29.02,63.536,600,1.8,158.5,3.4,0,0.00,0.00,0.00,109.598,89.744
10min,FGNet,alpine,42.04,04JUN2021:09:50:00,78.2,78.4,78.2,48.1,35,29.01,63.536,628,0.5,279.6,2.5,0,0.00,0.00,0.00,112.262,92.696
10min,FGNet,alpine,42.04,04JUN2021:10:00:00,79.9,80.2,79.8,47.7,32,28.98,63.446,653,0.3,152.6,1.6,0,0.00,0.00,0.00,117.788,95.108
10min,FGNet,alpine,42.04,04JUN2021:10:10:00,80.4,80.3,79.8,47.7,32,28.95,63.464,679,1.2,229.8,3.0,0,0.00,0.00,0.00,115.07,95.936
10min,FGNet,alpine,42.04,04JUN2021:10:20:00,80.7,80.6,80.4,49.6,34,28.92,63.374,704,1.2,254.1,3.6,0,0.00,0.00,0.00,111.776,92.426
10min,FGNet,alpine,42.04,04JUN2021:10:30:00,81.1,81.1,80.6,46.7,30,28.91,63.374,728,1.2,296.5,3.3,0,0.00,0.00,0.00,116.312,92.012
10min,FGNet,alpine,42.04,04JUN2021:10:40:00,81.7,81.5,80.9,46.3,29,28.87,63.392,751,1.7,244.8,3.6,0,0.00,0.00,0.00,117.95,94.892
10min,FGNet,alpine,42.04,04JUN2021:10:50:00,82.0,82.0,81.6,46.1,28,28.85,63.356,775,1.2,288.7,3.6,0,0.00,0.00,0.00,118.454,92.714
10min,FGNet,alpine,42.04,04JUN2021:11:00:00,82.2,82.4,82.1,44.9,27,28.83,63.41,797,2.6,245.1,4.6,0,0.00,0.00,0.00,121.244,97.844
10min,FGNet,alpine,42.04,04JUN2021:11:10:00,83.1,83.6,82.9,44.6,26,28.81,63.428,816,1.7,259.7,4.0,0,0.00,0.00,0.00,123.296,95.828
10min,FGNet,alpine,42.04,04JUN2021:11:20:00,83.5,83.7,83.2,44.6,26,28.8,63.464,835,2.7,238.7,5.1,0,0.00,0.00,0.00,119.75,97.772
10min,FGNet,alpine,42.04,04JUN2021:11:30:00,83.7,84.2,83.6,45.0,26,28.76,63.428,854,2.9,251.7,6.9,0,0.00,0.00,0.00,119.03,95.18
10min,FGNet,alpine,42.04,04JUN2021:11:40:00,84.1,85.4,84.5,46.3,27,28.76,63.5,869,0.8,223.5,4.0,0,0.00,0.00,0.00,127.346,102.434
10min,FGNet,alpine,42.04,04JUN2021:11:50:00,85.0,85.7,84.9,44.3,24,28.74,63.608,885,1.7,176.8,4.5,0,0.00,0.00,0.00,121.19,97.466
10min,FGNet,alpine,42.04,04JUN2021:12:00:00,85.1,85.4,85.1,45.4,25,28.72,63.698,900,3.1,234.5,4.9,0,0.00,0.00,0.00,115.88,98.564
10min,FGNet,alpine,42.04,04JUN2021:12:10:00,85.5,85.9,85.3,45.9,25,28.7,63.716,915,2.7,212.4,4.9,0,0.00,0.00,0.00,119.102,95.576
10min,FGNet,alpine,42.04,04JUN2021:12:20:00,85.9,86.6,86.2,47.5,26,28.67,63.788,925,2.1,215.3,4.8,0,0.00,0.00,0.00,119.444,100.562
10min,FGNet,alpine,42.04,04JUN2021:12:30:00,86.6,87.7,86.7,47.0,25,28.66,63.914,933,0.9,182,3.6,0,0.00,0.00,0.00,127.598,102.146
10min,FGNet,alpine,42.04,04JUN2021:12:40:00,87.6,87.9,87.5,45.1,23,28.64,64.004,947,2.1,242.1,4.6,0,0.00,0.00,0.00,127.4,101.894
10min,FGNet,alpine,42.04,04JUN2021:12:50:00,87.6,87.4,87.3,41.3,20,28.62,64.058,945,1.8,115.8,3.8,0,0.00,0.00,0.00,124.808,99.914
10min,FGNet,alpine,42.04,04JUN2021:13:00:00,88.3,88.6,88.1,41.0,19,28.6,64.256,955,2.2,150.2,6.2,0,0.00,0.00,0.00,113.126,96.854
10min,FGNet,alpine,42.04,04JUN2021:13:10:00,88.1,88.0,88.0,38.9,18,28.57,64.274,953,2.6,70.78,4.1,0,0.00,0.00,0.00,123.35,100.796
10min,FGNet,alpine,42.04,04JUN2021:13:20:00,89.0,89.2,89.2,39.7,18,28.56,64.472,960,2.5,192.5,6.4,0,0.00,0.00,0.00,124.934,105.098
10min,FGNet,alpine,42.04,04JUN2021:13:30:00,89.5,89.3,89.5,36.7,16,28.54,64.616,963,3.4,213.1,7.6,0,0.00,0.00,0.00,117.05,101.57
10min,FGNet,alpine,42.04,04JUN2021:13:40:00,89.8,89.5,89.7,36.1,15,28.51,64.76,958,4.0,154.1,7.9,0,0.00,0.00,0.00,121.424,100.454
10min,FGNet,alpine,42.04,04JUN2021:13:50:00,89.9,89.7,89.9,35.1,14,28.5,64.922,959,2.9,195.6,8.7,0,0.00,0.00,0.00,120.956,102.416
10min,FGNet,alpine,42.04,04JUN2021:14:00:00,90.4,90.4,90.7,34.8,14,28.46,65.048,954,4.8,283.6,10.6,0,0.00,0.00,0.00,115.916,98.312
10min,FGNet,alpine,42.04,04JUN2021:14:10:00,90.6,90.5,90.7,35.9,15,28.44,65.174,950,6.0,292.8,11.1,0,0.00,0.00,0.00,113.846,99.23
10min,FGNet,alpine,42.04,04JUN2021:14:20:00,91.1,91.1,91.3,37.6,15,28.42,65.282,938,4.3,283.4,11.9,0,0.00,0.00,0.00,111.434,103.874
10min,FGNet,alpine,42.04,04JUN2021:14:30:00,91.3,91.0,91.2,36.4,15,28.4,65.498,926,4.6,222.9,9.6,0,0.00,0.00,0.00,108.59,97.988
10min,FGNet,alpine,42.04,04JUN2021:14:40:00,91.0,90.6,90.6,36.3,15,28.38,65.426,916,6.2,178.4,11.2,0,0.00,0.00,0.00,108.932,99.212
10min,FGNet,alpine,42.04,04JUN2021:14:50:00,91.3,91.1,91.2,36.3,14,28.35,65.624,904,4.7,152.1,8.0,0,0.00,0.00,0.00,108.14,94.856
10min,FGNet,alpine,42.04,04JUN2021:15:00:00,91.3,91.0,90.9,36.5,15,28.33,65.804,890,5.5,217.5,11.6,0,0.00,0.00,0.00,101.3,92.228
10min,FGNet,alpine,42.04,04JUN2021:15:10:00,91.5,91.3,91.2,38.2,16,28.3,65.786,875,4.6,180.2,10.6,0,0.00,0.00,0.00,104.846,99.212
10min,FGNet,alpine,42.04,04JUN2021:15:20:00,91.7,91.8,91.5,39.0,16,28.28,65.894,861,4.2,228.6,11.7,0,0.00,0.00,0.00,108.716,98.024
10min,FGNet,alpine,42.04,04JUN2021:15:30:00,91.9,91.5,91.4,38.9,16,28.24,66.128,842,4.9,251.3,11.8,0,0.00,0.00,0.00,108.122,97.754
10min,FGNet,alpine,42.04,04JUN2021:15:40:00,91.8,91.6,91.4,37.1,15,28.22,66.128,825,5.4,261.4,11.0,0,0.00,0.00,0.00,113.342,99.914
10min,FGNet,alpine,42.04,04JUN2021:15:50:00,92.0,92.1,92.0,37.9,15,28.19,66.236,807,5.3,275.7,12.2,0,0.00,0.00,0.00,113.936,101.822
10min,FGNet,alpine,42.04,04JUN2021:16:00:00,92.3,92.4,92.1,37.2,15,28.17,66.362,788,5.1,302.9,10.0,0,0.00,0.00,0.00,108.302,99.014
10min,FGNet,alpine,42.04,04JUN2021:16:10:00,92.4,92.0,91.8,38.4,15,28.15,66.416,766,6.4,264.8,13.6,0,0.00,0.00,0.00,105.782,97.682
10min,FGNet,alpine,42.04,04JUN2021:16:20:00,92.3,92.2,91.9,37.3,15,28.13,66.506,742,3.7,216.7,8.5,0,0.00,0.00,0.00,110.228,100.652
10min,FGNet,alpine,42.04,04JUN2021:16:30:00,92.6,92.2,92.1,37.8,15,28.12,66.596,721,4.9,181.4,12.2,0,0.00,0.00,0.00,110.732,102.668
10min,FGNet,alpine,42.04,04JUN2021:16:40:00,93.2,93.8,93.3,39.2,15,28.09,66.74,694,2.1,243.3,3.9,0,0.00,0.00,0.00,110.858,102.92
10min,FGNet,alpine,42.04,04JUN2021:16:50:00,93.4,93.6,93.1,37.2,14,28.09,66.956,666,3.1,192.8,6.1,0,0.00,0.00,0.00,103.82,98.708
10min,FGNet,alpine,42.04,04JUN2021:17:00:00,93.0,92.4,91.9,37.5,14,28.07,67.136,641,5.2,192.9,9.3,0,0.00,0.00,0.00,100.616,98.564
10min,FGNet,alpine,42.04,04JUN2021:17:10:00,92.8,92.3,91.7,36.6,14,28.05,67.28,611,4.5,183.7,10.6,0,0.00,0.00,0.00,104.54,101.174
10min,FGNet,alpine,42.04,04JUN2021:17:20:00,92.8,92.6,92.0,38.3,15,28.03,67.46,586,4.7,188.2,11.5,0,0.00,0.00,0.00,100.544,97.7
10min,FGNet,alpine,42.04,04JUN2021:17:30:00,92.8,91.9,91.6,37.1,14,27.99,67.568,558,7.7,295.5,11.7,0,0.00,0.00,0.00,99.896,97.862
10min,FGNet,alpine,42.04,04JUN2021:17:40:00,92.8,92.0,91.3,37.4,14,27.97,67.838,529,5.9,303,9.1,0,0.00,0.00,0.00,99.68,98.438
10min,FGNet,alpine,42.04,04JUN2021:17:50:00,92.7,92.1,91.3,36.1,14,27.95,67.91,502,5.9,315.3,11.1,0,0.00,0.00,0.00,100.31,101.102
10min,FGNet,alpine,42.04,04JUN2021:18:00:00,92.8,92.2,91.9,38.3,15,27.93,68.054,469,4.6,297.8,7.3,0,0.00,0.00,0.00,97.52,97.394
10min,FGNet,alpine,42.04,04JUN2021:18:10:00,92.7,92.1,91.5,37.5,15,27.93,68.18,441,5.2,296.9,9.3,0,0.00,0.00,0.00,96.566,97.196
10min,FGNet,alpine,42.04,04JUN2021:18:20:00,92.6,91.5,91.1,38.8,15,27.9,68.306,415,5.1,297.5,8.5,0,0.00,0.00,0.00,96.062,96.872
10min,FGNet,alpine,42.04,04JUN2021:18:30:00,92.0,90.2,90.0,37.5,15,27.88,68.414,252,5.9,297.8,10.3,0,0.00,0.00,0.00,90.086,90.734
10min,FGNet,alpine,42.04,04JUN2021:18:40:00,91.2,89.7,89.1,37.5,15,27.87,68.54,311,5.3,302,9.0,0,0.00,0.00,0.00,95.432,96.602
10min,FGNet,alpine,42.04,04JUN2021:18:50:00,91.7,90.4,90.4,37.5,15,27.86,68.648,379,5.1,301.4,9.2,0,0.00,0.00,0.00,98.402,99.032
10min,FGNet,alpine,42.04,04JUN2021:19:00:00,92.2,91.0,90.9,38.1,15,27.83,68.756,377,4.4,304.7,7.8,0,0.00,0.00,0.00,98.438,98.816
10min,FGNet,alpine,42.04,04JUN2021:19:10:00,92.1,90.6,90.2,38.2,15,27.81,68.81,323,4.3,250.8,7.8,0,0.00,0.00,0.00,96.494,96.71
10min,FGNet,alpine,42.04,04JUN2021:19:20:00,91.9,90.5,90.2,36.5,14,27.79,68.846,270,4.6,166,8.5,0,0.00,0.00,0.00,95.612,96.746
10min,FGNet,alpine,42.04,04JUN2021:19:30:00,91.8,89.9,89.9,37.3,15,27.76,68.918,232,3.7,193.4,7.0,0,0.00,0.00,0.00,95.18,95.612
10min,FGNet,alpine,42.04,04JUN2021:19:40:00,91.4,89.4,89.5,37.8,15,27.75,68.954,195,3.7,202.4,9.0,0,0.00,0.00,0.00,95.36,95.9
10min,FGNet,alpine,42.04,04JUN2021:19:50:00,90.9,88.4,88.8,39.5,17,27.75,69.044,126,2.1,141.5,5.9,0,0.00,0.00,0.00,86.954,87.728
10min,FGNet,alpine,42.04,04JUN2021:20:00:00,89.0,85.6,85.3,40.1,18,27.74,69.062,32,2.9,258.4,4.8,0,0.00,0.00,0.00,82.202,84.164
10min,FGNet,alpine,42.04,04JUN2021:20:10:00,86.8,83.6,82.9,40.2,19,27.74,69.08,22,2.4,124.8,4.9,0,0.00,0.00,0.00,81.842,84.002
10min,FGNet,alpine,42.04,04JUN2021:20:20:00,85.7,82.9,81.9,39.1,19,27.73,69.152,43,2.6,258.8,5.1,0,0.00,0.00,0.00,80.168,81.5
10min,FGNet,alpine,42.04,04JUN2021:20:30:00,85.0,82.5,81.7,38.7,19,27.72,69.152,17,3.3,117.7,7.1,0,0.00,0.00,0.00,80.87,82.562
10min,FGNet,alpine,42.04,04JUN2021:20:40:00,84.2,81.2,80.2,39.0,20,27.72,69.152,10,1.9,128.2,4.8,0,0.00,0.00,0.00,78.026,80.294
10min,FGNet,alpine,42.04,04JUN2021:20:50:00,83.3,79.3,78.1,39.6,21,27.72,69.188,4,1.0,121.6,2.8,0,0.00,0.00,0.00,75.74,77.09
10min,FGNet,alpine,42.04,04JUN2021:21:00:00,81.9,77.4,76.4,42.7,25,27.72,69.17,2,0.6,193.8,1.6,0,0.00,0.00,0.00,74.732,76.172
10min,FGNet,alpine,42.04,04JUN2021:21:10:00,81.5,76.4,75.1,40.9,24,27.71,69.188,1,1.7,224.9,4.8,0,0.00,0.00,0.00,75.74,77.756
10min,FGNet,alpine,42.04,04JUN2021:21:20:00,81.9,76.4,75.2,38.9,22,27.71,69.188,0,2.4,238.1,4.1,0,0.00,0.00,0.00,73.85,76.118
10min,FGNet,alpine,42.04,04JUN2021:21:30:00,82.1,79.1,77.9,39.1,22,27.71,69.152,0,7.0,290.8,15.6,0,0.00,0.00,0.00,78.53,80.348
10min,FGNet,alpine,42.04,04JUN2021:21:40:00,83.8,82.2,81.7,39.3,21,27.71,69.134,0,5.8,202.8,12.3,0,0.00,0.00,0.00,77.972,79.772
10min,FGNet,alpine,42.04,04JUN2021:21:50:00,83.5,81.5,80.9,39.8,21,27.71,69.116,0,3.3,104.3,9.4,0,0.00,0.00,0.00,78.638,81.212
10min,FGNet,alpine,42.04,04JUN2021:22:00:00,83.3,81.6,80.8,40.4,22,27.7,69.116,0,5.4,257.7,10.5,0,0.00,0.00,0.00,79.718,81.554
10min,FGNet,alpine,42.04,04JUN2021:22:10:00,83.2,81.5,81.0,43.0,24,27.7,69.098,0,6.7,266.8,14.6,0,0.00,0.00,0.00,79.214,80.348
10min,FGNet,alpine,42.04,04JUN2021:22:20:00,82.1,80.6,80.2,46.0,28,27.7,69.062,0,7.2,298.7,14.4,0,0.00,0.00,0.00,78.98,80.168
10min,FGNet,alpine,42.04,04JUN2021:22:30:00,81.3,79.5,79.0,47.0,30,27.7,69.044,0,3.5,211.6,11.8,0,0.00,0.00,0.00,78.71,80.006
10min,FGNet,alpine,42.04,04JUN2021:22:40:00,81.9,80.7,80.3,45.4,28,27.7,69.026,0,8.2,254.1,14.0,0,0.00,0.00,0.00,79.484,80.33
10min,FGNet,alpine,42.04,04JUN2021:22:50:00,81.5,79.4,79.2,46.5,29,27.7,68.972,0,3.5,266.7,8.8,0,0.00,0.00,0.00,76.55,77.54
10min,FGNet,alpine,42.04,04JUN2021:23:00:00,80.3,78.5,77.9,48.5,33,27.69,68.936,0,5.3,284.1,13.4,0,0.00,0.00,0.00,77.54,78.764
10min,FGNet,alpine,42.04,04JUN2021:23:10:00,80.7,78.8,78.2,46.6,30,27.69,68.918,0,3.7,280.4,9.5,0,0.00,0.00,0.00,76.82,78.53
10min,FGNet,alpine,42.04,04JUN2021:23:20:00,80.1,77.9,77.3,47.6,32,27.68,68.792,0,3.8,185.6,11.2,0,0.00,0.00,0.00,76.442,77.324
10min,FGNet,alpine,42.04,04JUN2021:23:30:00,79.9,78.3,77.8,46.5,31,27.68,68.756,0,2.2,162.1,5.4,0,0.00,0.00,0.00,76.496,78.098
10min,FGNet,alpine,42.04,04JUN2021:23:40:00,80.6,78.9,78.3,44.8,28,27.67,68.72,0,5.5,200,13.1,0,0.00,0.00,0.00,77.558,78.422
10min,FGNet,alpine,42.04,04JUN2021:23:50:00,80.6,79.1,78.8,45.9,30,27.67,68.648,0,7.3,300.4,14.8,0,0.00,0.00,0.00,76.604,77.54
10min,FGNet,alpine,42.04,05JUN2021:00:00:00,79.7,78.2,77.9,47.0,32,27.67,68.576,0,8.5,289.8,16.8,0,0.00,0.00,0.00,76.442,77.09
10min,FGNet,alpine,42.04,05JUN2021:00:10:00,79.6,78.5,78.0,45.6,30,27.66,68.486,0,8.9,262.3,16.8,0,0.00,0.00,0.00,77.09,77.864
10min,FGNet,alpine,42.04,05JUN2021:00:20:00,79.1,77.7,77.4,47.8,33,27.66,68.45,0,6.4,281,14.5,0,0.00,0.00,0.00,75.83,77.216
10min,FGNet,alpine,42.04,05JUN2021:00:30:00,78.7,77.2,76.7,47.7,34,27.65,68.342,0,5.1,312.3,8.8,0,0.00,0.00,0.00,76.334,77.432
10min,FGNet,alpine,42.04,05JUN2021:00:40:00,78.8,77.6,77.2,45.8,31,27.64,68.252,0,6.3,300.1,13.2,0,0.00,0.00,0.00,75.47,76.604
10min,FGNet,alpine,42.04,05JUN2021:00:50:00,78.7,77.0,76.6,45.1,31,27.64,68.198,0,3.5,239.9,9.2,0,0.00,0.00,0.00,74.948,76.082
10min,FGNet,genola,42.05,04JUN2021:00:00:00,76.0,73.5,70.6,40.8,28,12.79,43.9718,0,2.3,68.42,3.5,0,0.00,0.00,0.00,70.844,72.338
10min,FGNet,genola,42.05,04JUN2021:00:10:00,76.5,72.6,69.1,41.6,29,12.81,43.5686,0,1.9,162.6,5.4,0,0.00,0.00,0.00,65.156,66.794
10min,FGNet,genola,42.05,04JUN2021:00:20:00,73.2,70.7,69.0,42.1,33,12.81,43.7666,0,4.2,99.5,5.2,0,0.00,0.00,0.00,68.432,69.746
10min,FGNet,genola,42.05,04JUN2021:00:30:00,76.0,72.6,70.2,40.7,28,12.81,42.9548,0,3.1,49.15,5.1,0,0.00,0.00,0.00,67.658,70.106
10min,FGNet,genola,42.05,04JUN2021:00:40:00,75.1,69.7,67.5,40.8,29,12.81,43.0502,0,2.0,70.63,3.0,0,0.00,0.00,0.00,65.39,66.776
10min,FGNet,genola,42.05,04JUN2021:00:50:00,73.9,69.4,67.0,41.1,31,12.81,44.4542,0,1.5,91.7,3.5,0,0.00,0.00,0.00,66.776,68.414
10min,FGNet,genola,42.05,04JUN2021:01:00:00,73.0,67.6,65.2,41.1,32,12.83,44.8322,0,1.4,80.4,2.7,0,0.00,0.00,0.00,62.744,64.598
10min,FGNet,genola,42.05,04JUN2021:01:10:00,73.0,68.2,65.2,41.1,32,12.81,45.1472,0,1.5,71.52,3.1,0,0.00,0.00,0.00,60.98,63.554
10min,FGNet,genola,42.05,04JUN2021:01:20:00,74.4,70.6,68.2,39.1,28,12.77,44.4776,0,3.3,66.45,5.2,0,0.00,0.00,0.00,65.912,67.946
10min,FGNet,genola,42.05,04JUN2021:01:30:00,74.4,68.2,66.2,39.4,28,12.82,44.6558,0,2.8,95.3,4.7,0,0.00,0.00,0.00,62.384,64.634
10min,FGNet,genola,42.05,04JUN2021:01:40:00,72.8,67.5,65.2,39.4,30,12.79,44.5982,0,0.3,269.7,1.3,0,0.00,0.00,0.00,63.986,66.02
10min,FGNet,genola,42.05,04JUN2021:01:50:00,73.5,69.2,66.6,38.3,28,12.8,46.634,0,3.5,79.23,4.7,0,0.00,0.00,0.00,64.544,66.974
10min,FGNet,genola,42.05,04JUN2021:02:00:00,72.1,67.0,65.1,39.7,31,12.79,45.7808,0,1.6,105.3,2.6,0,0.00,0.00,0.00,63.806,65.552
10min,FGNet,genola,42.05,04JUN2021:02:10:00,73.2,68.4,65.8,38.2,28,12.79,45.7574,0,2.6,87.5,3.6,0,0.00,0.00,0.00,63.158,65.75
10min,FGNet,genola,42.05,04JUN2021:02:20:00,72.1,66.3,64.6,40.0,31,12.83,46.247,0,1.8,99,4.4,0,0.00,0.00,0.00,62.708,64.958
10min,FGNet,genola,42.05,04JUN2021:02:30:00,71.0,65.9,64.2,39.5,32,12.8,45.806,0,0.9,139,2.2,0,0.00,0.00,0.00,61.88,63.59
10min,FGNet,genola,42.05,04JUN2021:02:40:00,70.1,66.2,63.3,39.3,32,12.78,46.382,0,1.4,263.1,2.5,0,0.00,0.00,0.00,60.836,62.798
10min,FGNet,genola,42.05,04JUN2021:02:50:00,70.1,65.8,62.9,39.1,32,12.8,47.066,0,1.4,125.7,2.3,0,0.00,0.00,0.00,61.844,63.644
10min,FGNet,genola,42.05,04JUN2021:03:00:00,71.1,67.4,63.8,38.3,30,12.77,46.598,0,0.7,15.78,1.7,0,0.00,0.00,0.00,61.16,63.464
10min,FGNet,genola,42.05,04JUN2021:03:10:00,70.4,65.1,62.5,39.6,33,12.85,47.534,0,0.8,134.6,2.0,0,0.00,0.00,0.00,60.224,62.204
10min,FGNet,genola,42.05,04JUN2021:03:20:00,68.6,63.0,60.8,39.3,34,12.83,46.778,0,0.0,0.432,0.0,0,0.00,0.00,0.00,59.99,61.412
10min,FGNet,genola,42.05,04JUN2021:03:30:00,68.9,63.1,60.9,38.7,33,12.84,46.265,0,0.7,175.8,1.8,0,0.00,0.00,0.00,58.64,60.62
10min,FGNet,genola,42.05,04JUN2021:03:40:00,69.5,63.9,61.5,38.2,32,12.85,46.2506,0,0.5,154.2,1.4,0,0.00,0.00,0.00,59.756,61.268
10min,FGNet,genola,42.05,04JUN2021:03:50:00,68.7,64.0,61.7,39.1,34,12.84,46.544,0,0.7,100,1.5,0,0.00,0.00,0.00,60.548,62.474
10min,FGNet,genola,42.05,04JUN2021:04:00:00,69.3,65.6,63.1,38.0,32,12.8,46.2848,0,2.1,87.4,3.7,0,0.00,0.00,0.00,62.15,63.68
10min,FGNet,genola,42.05,04JUN2021:04:10:00,68.8,64.2,62.4,39.0,34,12.83,46.2344,0,2.7,99.6,4.1,0,0.00,0.00,0.00,58.766,60.638
10min,FGNet,genola,42.05,04JUN2021:04:20:00,67.6,62.6,61.0,38.8,35,12.84,45.3416,0,1.1,92.9,2.5,0,0.00,0.00,0.00,58.856,60.278
10min,FGNet,genola,42.05,04JUN2021:04:30:00,67.6,63.3,61.3,38.5,34,12.82,44.4812,0,0.9,123.1,2.7,0,0.00,0.00,0.00,60.242,61.682
10min,FGNet,genola,42.05,04JUN2021:04:40:00,67.7,62.4,60.3,38.2,34,12.84,44.06,0,1.4,74.43,3.2,0,0.00,0.00,0.00,59.792,61.61
10min,FGNet,genola,42.05,04JUN2021:04:50:00,67.8,62.3,60.2,38.0,33,12.8,44.2256,0,1.3,89.2,2.4,0,0.00,0.00,0.00,59.9,61.196
10min,FGNet,genola,42.05,04JUN2021:05:00:00,68.0,62.8,60.8,38.1,33,12.8,43.97,0,3.5,96.9,4.6,0,0.00,0.00,0.00,60.422,62.294
10min,FGNet,genola,42.05,04JUN2021:05:10:00,68.6,64.3,61.8,37.7,32,12.77,43.808,0,3.7,87.5,4.4,0,0.00,0.00,0.00,60.602,62.618
10min,FGNet,genola,42.05,04JUN2021:05:20:00,68.4,62.9,61.0,38.9,34,12.77,45.1616,0,2.2,117.9,3.9,0,0.00,0.00,0.00,55.472,58.064
10min,FGNet,genola,42.05,04JUN2021:05:30:00,64.7,61.1,59.5,40.3,41,12.72,48.686,0,1.9,304.1,3.5,0,0.00,0.00,0.00,60.152,60.872
10min,FGNet,genola,42.05,04JUN2021:05:40:00,65.8,62.4,60.5,39.0,37,12.78,48.308,0,2.3,110.8,4.3,0,0.00,0.00,0.00,59.216,60.602